Regional Weather Roundup
Issued by NWS

Home | Current Version | Previous Version | Text Only | Print | Product List | Glossary Off
Versions: 1 2 3 4 5 6 7 8 9 10 11 12 13 14 15 16 17 18 19 20 21 22 23 24 25 26 27 28 29 30 31 32 33 34 35 36 37 38 39 40 41 42 43 44 45 46 47 48 49 50

916
ASUS43 KMPX 291501
RWRMN
WEATHER ROUNDUP FOR MINNESOTA
NATIONAL WEATHER SERVICE TWIN CITIES/CHANHASSEN MN
1000 AM CDT MON MAY 29 2017


NOTE: "FAIR" INDICATES FEW OR NO CLOUDS BELOW 12,000 FEET WITH NO
SIGNIFICANT WEATHER AND/OR OBSTRUCTIONS TO VISIBILITY. N/A MEANS
CURRENT SKY AND/OR WEATHER CONDITIONS ARE NOT AVAILABLE.

MNZ060>063-068>070-291600-
   Twin Cities Metro

CITY           SKY/WX    TMP DP  RH WIND       PRES   REMARKS
TWIN CITIES    CLOUDY    58  46  64 NW14G22   29.80R
ST PAUL        CLOUDY    58  48  69 W15       29.80R
CRYSTAL        CLOUDY    58  46  64 NW17G26   29.79R
BLAINE         CLOUDY    57  48  72 W13       29.79R
LAKEVILLE      CLOUDY    55  48  76 W8        29.81R
EDEN PRAIRIE   CLOUDY    58  47  66 W13       29.80R
SOUTH ST PAUL  PTSUNNY   56  48  74 W9        29.80R HAZE
LAKE ELMO      CLOUDY    55  50  82 NW13      29.80R
$$
MNZ001>005-007-008-013>017-022>024-027-028-291600-
   Northwest Minnesota

CITY           SKY/WX    TMP DP  RH WIND       PRES   REMARKS
BEMIDJI        CLOUDY    49  44  82 NW17G25   29.77S
HALLOCK        CLOUDY    52  46  82 N17G25    29.84R
ROSEAU         CLOUDY    48  43  81 NW14      29.79R
WARROAD        CLOUDY    48  45  87 NW14G23   29.77S
CROOKSTON      CLOUDY    46  46 100 N18       29.85S
FOSSTON        CLOUDY    48  45  87 NW18G24   29.81S
DETROIT LAKES  LGT RAIN  50  46  87 NW16G25   29.84R
MOORHEAD       DRIZZLE   54  48  82 NW21      29.87S
PARK RAPIDS    CLOUDY    53  43  68 NW18G28   29.79R
MAHNOMEN       CLOUDY    49  46  90 NW23      29.82S
$$
MNZ006-009>011-018-025>026-291600-
   North Central Minnesota

CITY           SKY/WX    TMP DP  RH WIND       PRES   REMARKS
BAUDETTE       CLOUDY    50  46  86 NW22G29   29.73S
FLAG ISLAND    CLOUDY    48  45  87 NW28      29.73R
INTL FALLS     CLOUDY    51  49  92 NW9       29.68R
WASKISH        CLOUDY    48  46  93 NW14      29.75R
BIG FORK       DRIZZLE   52  48  87 W7        29.71S
LONGVILLE      CLOUDY    52  46  82 W14       29.75R
GRAND RAPIDS   CLOUDY    52  47  83 NW15      29.73S
CRANE LAKE     RAIN      48  48 100 W5        29.66S
COOK           LGT RAIN  50  48  93 W10       29.68R
WALKER         CLOUDY    49  45  85 NW10G21   29.77R
$$
MNZ012-019>021-037-291600-
   Northeast Minnesota

CITY           SKY/WX    TMP DP  RH WIND       PRES   REMARKS
DULUTH         CLOUDY    53  47  79 NW18G26   29.67R
ELY            CLOUDY    50  48  93 W12       29.63R FOG
HIBBING        LGT RAIN  50  48  93 NW14G21   29.68S
EVELETH        CLOUDY    53  49  86 W13G21    29.68R
DULUTH HARBOR  CLOUDY    57  50  77 NW13      29.69R
TWO HARBORS    PTSUNNY   55  50  82 W8G17     29.63R
SILVER BAY     CLOUDY    55  50  82 W5        29.61R
GRAND MARAIS     N/A     43  42  97 CALM      29.57S
G MARAIS ARPRT CLOUDY    54  46  76 W6        29.58S
$$
MNZ029>031-032-039>041-046>048-054>057-064-291600-
   West Central Minnesota

CITY           SKY/WX    TMP DP  RH WIND       PRES   REMARKS
FERGUS FALLS   CLOUDY    52  52 100 N15       29.85R FOG
WHEATON        PTSUNNY   54  46  76 NW18G26   29.90S
MORRIS         PTSUNNY   55  48  76 NW25G32   29.86R
ALEXANDRIA     CLOUDY    54  47  77 NW20G28   29.83S
ELBOW LAKE     LGT RAIN  52  49  90 W21G28    29.86S
WADENA         CLOUDY    50  46  87 NW12      29.81R FOG
GLENWOOD       MOSUNNY   55  46  71 NW22G29   29.83R
APPLETON       CLOUDY    55  48  76 NW14      29.88R
BENSON         CLOUDY    57  46  67 N17G25    29.87R
ORTONVILLE     CLOUDY    55  46  71 NW14G20   29.89R
MADISON        CLOUDY    61  48  63 NW17G26   29.89R
WILLMAR        PTSUNNY   57  48  72 NW17      29.86R
$$
MNZ033>034-036-042>043-049>051-058-059-291600-
   Central Minnesota

CITY           SKY/WX    TMP DP  RH WIND       PRES   REMARKS
ST CLOUD       CLOUDY    55  50  83 W16       29.79R
SAUK CENTRE    CLOUDY    55  47  76 NW16      29.82R
PAYNESVILLE    CLOUDY    56  46  70 NW15G21   29.82R
AITKIN         CLOUDY    54  46  76 NW9       29.73S
PINE RIVER     CLOUDY    54  46  76 NW8       29.80R
BRAINERD       CLOUDY    53  49  86 NW9       29.77S
STAPLES        CLOUDY    52  46  82 W17       29.79R
LONG PRAIRIE   CLOUDY    54  45  71 W16G25    29.81R
LITTLE FALLS   CLOUDY    54  45  71 NW13G23   29.79R
LITCHFIELD     CLOUDY    57  48  72 NW14G23   29.83R
BUFFALO        CLOUDY    55  48  78 W12       29.82R
MAPLE LAKE     CLOUDY    55  51  87 NW6       29.82R
HUTCHINSON     CLOUDY    57  48  70 W17G24    29.84R
$$
MNZ037-044-045-052-053-291600-
   East Central Minnesota

CITY           SKY/WX    TMP DP  RH WIND       PRES   REMARKS
PRINCETON      CLOUDY    57  50  77 W10G18    29.78R
MORA           CLOUDY    54  46  76 NW10      29.76R
CAMBRIDGE      CLOUDY    57  46  67 W7        29.76R
RUSH CITY      CLOUDY    55  48  80 CALM      29.76R
MOOSE LAKE     CLOUDY    54  46  76 NW8       29.71R
HINCKLEY       CLOUDY    55  46  71 W10G18    29.74R
CLOQUET        CLOUDY    54  45  71 W12G22    29.69S
MCGREGOR       CLOUDY    52  46  82 W9G17     29.74R
$$
MNZ071>073-080-081-089-090-097-098-291600-
   Southwest Minnesota

CITY           SKY/WX    TMP DP  RH WIND       PRES   REMARKS
MONTEVIDEO     PTSUNNY   54  50  87 N12G22    29.88R
CANBY          CLOUDY    57  47  70 W15       29.92R
MARSHALL       CLOUDY    58  46  64 NW20      29.89S
REDWOOD FALLS  CLOUDY    58  46  64 NW15      29.87R
OLIVIA         CLOUDY    59  48  67 NW17G26   29.85R
PIPESTONE      CLOUDY    55  43  62 NW18      29.94R
WINDOM         MOSUNNY   61  46  59 W17       29.90S
WORTHINGTON    MOSUNNY   57  47  69 W21G26    29.93R
JACKSON        MOSUNNY   59  46  63 W14G22    29.91R
TRACY          CLOUDY    59  48  68 NW14      29.90S
SLAYTON        PTSUNNY   55  48  78 W15       29.93R
$$
MNZ065>067-074>077-082>085-091>093-291600-
   South Central Minnesota

CITY           SKY/WX    TMP DP  RH WIND       PRES   REMARKS
MANKATO        CLOUDY    58  47  66 W20G30    29.85S
NEW ULM        CLOUDY    57  46  67 NW12G24   29.86S
FAIRMONT       CLOUDY    60  45  57 W14       29.89R
GLENCOE        CLOUDY    57  50  76 W15G23    29.83R
FARIBAULT      CLOUDY    57  48  72 W14       29.83S
OWATONNA       PTSUNNY   57  46  67 W17G23    29.84S
WASECA         CLOUDY    55  45  67 W18       29.86S
ALBERT LEA     PTSUNNY   63  46  55 W13G18    29.86S
$$
MNZ078>079-086>088-094>096-291600-
   Southeast Minnesota

CITY           SKY/WX    TMP DP  RH WIND       PRES   REMARKS
ROCHESTER      CLOUDY    56  46  69 W18       29.84R
RED WING       CLOUDY    57  46  67 W10G16    29.79S
STANTON        CLOUDY    57  48  72 W13G18    29.81R
DODGE CENTER   CLOUDY    55  46  71 W16       29.83S
WINONA         CLOUDY    59  46  63 NW12G20   29.80S
AUSTIN         CLOUDY    57  45  62 W15G22    29.85S
PRESTON        CLOUDY    56  44  65 W18G24    29.84S
$$
ABBREVIATIONS USED IN REMARKS
   TC - TEMPERATURES IN CELSIUS
  WCI - WIND CHILL INDEX
   HX - HEAT INDEX
  VSB - VISIBILITY
$$




USA.gov is the U.S. government's official web portal to all federal, state and local government web resources and services.